Hurricane Symbol View the latest observations near Atlantic Tropical Storm Alberto.

Station NCHT2 - 8770777 - Manchester, TX Image indicating link to RSS feed of recent meteorological observations for station NCHT2


Conditions at NCHT2 as of
(3:18 pm CDT)
2018 GMT on 06/19/2024:
     

Click on the graph icon in the table below to see a time series plot of the last five days of that observation.

5-day plot - Wind Direction Wind Direction (WDIR): E ( 90 deg true )
5-day plot - Wind Speed Wind Speed (WSPD): 7.0 kts
5-day plot - Wind Gust Wind Gust (GST): 9.9 kts
5-day plot - Atmospheric Pressure Atmospheric Pressure (PRES):29.85 in
5-day plot - Air Temperature Air Temperature (ATMP): 84.2 °F
5-day plot - Wind Speed at 10 Meters Wind Speed at 10 meters (WSPD10M): 7.8 kts
5-day plot - Wind Speed at 20 Meters Wind Speed at 20 meters (WSPD20M): 9.7 kts
5-day plot -  Wind Speed, Wind Gust and Atmospheric Pressure Combined plot of Wind Speed, Gust, and Air Pressure
Previous observations
TIME
(CDT)
5-day plot - Wind Direction
WDIR
 
5-day plot - Wind Speed
WSPD
kts
5-day plot - Wind Gust
GST
kts
5-day plot - Wave Height
WVHT
ft
5-day plot - Dominant Wave Period
DPD
sec
5-day plot - Average Wave Period
APD
sec
5-day plot - Mean Wave Direction
MWD
 
5-day plot - Atmospheric Pressure
PRES
in
5-day plot - Pressure Tendency
PTDY
in
5-day plot - Air Temperature
ATMP
°F
5-day plot - Water Temperature
WTMP
°F
5-day plot - Dew Point
DEWP
°F
5-day plot - Salinity
SAL
psu
5-day plot - Visibility
VIS
nmi
5-day plot - Tide (above MLLW)
TIDE
ft
2024-06-19 03:12 pm E 8.9 13.0----29.85- 84.6-----
2024-06-19 03:06 pm E 8.0 12.0----29.85- 84.4-----
2024-06-19 03:00 pm E 8.9 12.0----29.85-0.04 84.0-----
2024-06-19 02:54 pm E 8.0 12.0----29.85- 83.8-----
2024-06-19 02:48 pm E 7.0 11.1----29.85- 82.9-----
2024-06-19 02:42 pm E 6.0 12.0----29.85- 82.4-----
2024-06-19 02:36 pm E 7.0 12.0----29.86- 82.2-----
2024-06-19 02:30 pm E 8.0 11.1----29.86- 82.0-----
2024-06-19 02:24 pm E 8.0 14.0----29.87- 82.4-----
2024-06-19 02:18 pm E 8.0 13.0----29.87- 82.4-----
2024-06-19 02:12 pm E 8.9 12.0----29.87- 82.4-----
2024-06-19 02:06 pm E 6.0 11.1----29.87- 81.9-----
2024-06-19 02:00 pmENE 5.1 8.0----29.88+0.00 81.1-----
2024-06-19 01:54 pmENE 5.1 7.0----29.88- 80.4-----
2024-06-19 01:48 pmENE 2.9 4.1----29.88- 79.7-----
2024-06-19 01:42 pmENE 4.1 7.0----29.88- 79.7-----
2024-06-19 01:36 pm E 5.1 7.0----29.88- 79.3-----
2024-06-19 01:30 pm E 2.9 6.0----29.89- 79.0-----
2024-06-19 01:24 pm E 2.9 5.1----29.89- 79.0-----
2024-06-19 01:18 pm E 2.9 5.1----29.89- 79.0-----
2024-06-19 01:12 pm E 4.1 7.0----29.89- 78.6-----
2024-06-19 01:06 pm E 4.1 6.0----29.89- 78.3-----
2024-06-19 01:00 pm E 5.1 8.9----29.89+0.02 78.6-----
2024-06-19 12:54 pm E 6.0 8.9----29.89- 79.3-----
2024-06-19 12:48 pmENE 6.0 12.0----29.89- 79.0-----
2024-06-19 12:42 pm E 8.0 11.1----29.89- 79.5-----
2024-06-19 12:36 pm E 8.9 12.0----29.89- 79.9-----
2024-06-19 12:30 pm E 7.0 14.0----29.89- 79.9-----
2024-06-19 12:24 pm E 9.9 15.0----29.89- 79.7-----
2024-06-19 12:18 pmENE 8.0 13.0----29.89- 79.7-----
2024-06-19 12:12 pm E 8.9 12.0----29.89- 79.7-----
2024-06-19 12:06 pm E 8.9 15.0----29.89- 79.7-----
2024-06-19 12:00 pm E 8.9 15.9----29.89+0.02 79.9-----
2024-06-19 11:54 am E 9.9 13.0----29.89- 80.1-----
2024-06-19 11:48 am E 12.0 18.1----29.89- 80.1-----
2024-06-19 11:42 am E 9.9 15.0----29.89- 80.1-----
2024-06-19 11:36 am E 8.9 14.0----29.89- 79.9-----
2024-06-19 11:30 am E 11.1 14.0----29.89- 79.7-----
2024-06-19 11:24 am E 9.9 15.0----29.88- 79.2-----
2024-06-19 11:18 am E 9.9 14.0----29.88- 79.2-----
2024-06-19 11:12 am E 8.9 13.0----29.88- 79.0-----
2024-06-19 11:06 am E 8.0 12.0----29.88- 79.0-----
2024-06-19 11:00 am E 8.9 14.0----29.88+0.03 79.0-----
2024-06-19 10:54 am E 9.9 15.0----29.88- 79.0-----
2024-06-19 10:48 am E 8.9 12.0----29.88- 79.0-----
2024-06-19 10:42 am E 8.9 15.0----29.88- 78.8-----
2024-06-19 10:36 am E 8.0 13.0----29.88- 78.6-----
2024-06-19 10:30 am E 8.0 14.0----29.88- 78.3-----
2024-06-19 10:24 am E 9.9 14.0----29.88- 78.3-----
2024-06-19 10:18 am E 9.9 13.0----29.88- 78.1-----
2024-06-19 10:12 am E 9.9 14.0----29.88- 77.9-----
2024-06-19 10:06 amENE 8.9 12.0----29.88- 77.5-----
2024-06-19 10:00 am E 8.9 11.1----29.88+0.04 77.5-----
2024-06-19 09:54 am E 9.9 14.0----29.88- 77.4-----
2024-06-19 09:48 am E 8.9 13.0----29.88- 77.0-----
2024-06-19 09:42 am E 8.9 13.0----29.88- 77.2-----
2024-06-19 09:36 am E 8.9 15.0----29.88- 77.0-----
2024-06-19 09:30 amENE 8.0 14.0----29.88- 76.8-----
2024-06-19 09:24 am E 9.9 15.0----29.88- 77.0-----
2024-06-19 09:18 am E 8.9 14.0----29.88- 77.0-----
2024-06-19 09:12 am E 9.9 14.0----29.88- 77.0-----
2024-06-19 09:06 am E 8.9 15.0----29.87- 77.0-----
2024-06-19 09:00 am E 8.9 12.0----29.87+0.05 77.0-----
2024-06-19 08:54 am E 8.0 12.0----29.87- 77.0-----
2024-06-19 08:48 am E 8.0 15.9----29.87- 76.8-----
2024-06-19 08:42 am E 8.0 12.0----29.87- 76.6-----
2024-06-19 08:36 am E 7.0 13.0----29.86- 76.6-----
2024-06-19 08:30 am E 8.0 13.0----29.87- 76.5-----
2024-06-19 08:24 am E 8.9 12.0----29.86- 76.5-----
2024-06-19 08:18 am E 7.0 12.0----29.86- 76.3-----
2024-06-19 08:12 am E 8.0 9.9----29.86- 76.1-----
2024-06-19 08:06 am E 7.0 11.1----29.85- 76.1-----
2024-06-19 08:00 am E 9.9 13.0----29.85+0.05 76.1-----
2024-06-19 07:54 am E 8.9 13.0----29.85- 75.9-----
2024-06-19 07:48 am E 8.0 12.0----29.85- 75.9-----
2024-06-19 07:42 am E 9.9 14.0----29.85- 75.9-----
2024-06-19 07:36 am E 8.0 12.0----29.85- 76.1-----
2024-06-19 07:30 am E 8.0 11.1----29.85- 75.9-----
2024-06-19 07:24 am E 8.9 12.0----29.85- 76.1-----
2024-06-19 07:18 am E 7.0 11.1----29.85- 76.1-----
2024-06-19 07:12 am E 8.9 11.1----29.85- 76.1-----
2024-06-19 07:06 am E 8.9 11.1----29.84- 76.3-----
2024-06-19 07:00 am E 8.9 12.0----29.84+0.04 76.3-----
2024-06-19 06:54 am E 6.0 9.9----29.84- 76.5-----
2024-06-19 06:48 am E 7.0 9.9----29.83-------
2024-06-19 06:42 am E 6.0 11.1----29.83-------
2024-06-19 06:36 am E 5.1 8.9----29.83-------
2024-06-19 06:30 am E 6.0 8.9----29.82- 76.5-----
2024-06-19 06:24 am E 7.0 9.9----29.82- 76.5-----
2024-06-19 06:18 am E 7.0 11.1----29.82- 76.6-----
2024-06-19 06:12 am E 7.0 8.9----29.82- 76.8-----
2024-06-19 06:06 am E 6.0 9.9----29.82- 76.8-----
2024-06-19 06:00 am E 7.0 12.0----29.82+0.00 77.0-----
2024-06-19 05:54 am E 8.0 8.9----29.82- 77.0-----
2024-06-19 05:48 am E 8.0 12.0----29.81- 77.0-----
2024-06-19 05:42 am E 7.0 9.9----29.81- 77.0-----
2024-06-19 05:36 am E 8.0 11.1----29.81- 77.2-----
2024-06-19 05:30 amENE 7.0 9.9----29.81- 77.2-----
2024-06-19 05:24 am E 8.0 12.0----29.81- 77.2-----
2024-06-19 05:18 am E 8.9 13.0----29.80- 77.5-----
2024-06-19 05:12 am E 7.0 11.1----29.80- 77.5-----
2024-06-19 05:06 am E 8.0 11.1----29.80- 77.5-----
2024-06-19 05:00 am E 8.0 11.1----29.80-0.02 77.5-----
2024-06-19 04:54 am E 6.0 8.0----29.80- 77.5-----
2024-06-19 04:48 am E 7.0 9.9----29.80- 77.5-----
2024-06-19 04:42 am E 7.0 9.9----29.80- 77.7-----
2024-06-19 04:36 am E 6.0 8.9----29.80- 77.9-----
2024-06-19 04:30 am E 8.0 13.0----29.80- 78.1-----
2024-06-19 04:24 am E 7.0 9.9----29.80- 77.9-----
2024-06-19 04:18 am E 5.1 9.9----29.80- 77.7-----
2024-06-19 04:12 am E 6.0 9.9----29.80- 77.7-----
2024-06-19 04:06 am E 7.0 9.9----29.81- 77.5-----
2024-06-19 04:00 amENE 6.0 11.1----29.80-0.03 78.1-----
2024-06-19 03:54 am E 6.0 8.9----29.80- 78.4-----
2024-06-19 03:48 am E 7.0 12.0----29.80- 78.6-----
2024-06-19 03:42 am E 6.0 8.9----29.81- 79.0-----
2024-06-19 03:36 am E 6.0 9.9----29.81- 79.2-----
2024-06-19 03:30 am E 7.0 15.0----29.80- 79.7-----
2024-06-19 03:24 am E 7.0 12.0----29.80- 79.7-----
2024-06-19 03:18 am E 8.0 14.0----29.80- 79.7-----
2024-06-19 03:12 am E 8.9 13.0----29.81- 79.3-----
2024-06-19 03:06 am E 9.9 14.0----29.81- 79.3-----
2024-06-19 03:00 am E 9.9 14.0----29.82-0.02 79.2-----
2024-06-19 02:54 am E 7.0 11.1----29.82- 79.3-----
2024-06-19 02:48 am E 6.0 14.0----29.82- 79.7-----
2024-06-19 02:42 am E 8.0 13.0----29.82- 79.7-----
2024-06-19 02:36 am E 8.0 13.0----29.82- 80.1-----
2024-06-19 02:30 am E 8.9 15.0----29.82- 80.1-----
2024-06-19 02:24 am E 9.9 12.0----29.82- 80.1-----
2024-06-19 02:18 am E 8.9 13.0----29.82- 80.4-----
2024-06-19 02:12 am E 8.9 11.1----29.82- 80.4-----
2024-06-19 02:06 am E 8.9 15.0----29.82- 80.2-----
2024-06-19 02:00 am E 9.9 13.0----29.82-0.01 80.4-----
2024-06-19 01:54 am E 8.9 13.0----29.83- 80.4-----
2024-06-19 01:48 am E 7.0 12.0----29.83- 80.6-----
2024-06-19 01:42 am E 8.9 15.9----29.83- 80.4-----
2024-06-19 01:36 am E 12.0 18.1----29.83- 80.6-----
2024-06-19 01:30 am E 8.0 13.0----29.83- 80.2-----
2024-06-19 01:24 am E 8.0 12.0----29.83- 80.2-----
2024-06-19 01:18 am E 8.9 12.0----29.83- 80.2-----
2024-06-19 01:12 am E 9.9 15.0----29.83- 80.1-----
2024-06-19 01:06 am E 9.9 15.0----29.83- 80.4-----
2024-06-19 01:00 am E 11.1 14.0----29.83+0.01 80.4-----
2024-06-19 12:54 am E 8.0 14.0----29.83- 80.2-----
2024-06-19 12:48 am E 7.0 11.1----29.83- 80.1-----
2024-06-19 12:42 am E 6.0 9.9----29.83- 80.2-----
2024-06-19 12:36 am E 8.9 15.9----29.83- 80.6-----
2024-06-19 12:30 am E 9.9 14.0----29.83-------
2024-06-19 12:24 am E 9.9 15.0----29.83-------
2024-06-19 12:18 am E 8.0 12.0----29.83- 80.4-----
2024-06-19 12:12 am E 8.0 13.0----29.83- 80.4-----
2024-06-19 12:06 am E 12.0 15.9----29.84- 80.2-----
2024-06-19 12:00 am E 8.9 12.0----29.84+0.01 80.6-----
2024-06-18 11:54 pm E 8.9 13.0----29.84- 80.4-----
2024-06-18 11:48 pm E 9.9 15.9----29.84- 81.1-----
2024-06-18 11:42 pm E 8.9 14.0----29.84- 80.4-----
2024-06-18 11:36 pm E 9.9 15.0----29.83- 80.6-----
2024-06-18 11:30 pm E 9.9 15.9----29.84- 80.8-----
2024-06-18 11:24 pm E 9.9 13.0----29.83- 81.0-----
2024-06-18 11:18 pm E 8.0 13.0----29.83- 81.1-----
2024-06-18 11:12 pmESE 8.0 13.0----29.83- 81.5-----
2024-06-18 11:06 pm E 9.9 15.0----29.83- 81.1-----
2024-06-18 11:00 pm E 8.0 15.9----29.83+0.00 81.0-----
2024-06-18 10:54 pm E 9.9 14.0----29.83- 81.0-----
2024-06-18 10:48 pmESE 8.9 15.9----29.83- 81.3-----
2024-06-18 10:42 pmESE 8.0 13.0----29.83- 81.3-----
2024-06-18 10:36 pm E 12.0 17.1----29.83- 81.1-----
2024-06-18 10:30 pm E 12.0 18.1----29.83- 81.3-----
2024-06-18 10:24 pm E 15.0 21.0----29.83- 81.3-----
2024-06-18 10:18 pm E 14.0 21.0----29.83- 81.5-----
2024-06-18 10:12 pm E 11.1 15.9----29.83- 81.3-----
2024-06-18 10:06 pm E 8.9 15.9----29.83- 81.3-----
2024-06-18 10:00 pm E 11.1 14.0----29.83+0.01 81.3-----
2024-06-18 09:54 pm E 8.9 15.9----29.83- 81.1-----
2024-06-18 09:48 pm E 9.9 17.1----29.82- 81.1-----
2024-06-18 09:42 pm E 8.0 12.0----29.83- 81.1-----
2024-06-18 09:36 pm E 9.9 15.0----29.82- 81.3-----
2024-06-18 09:30 pm E 8.0 13.0----29.82- 81.3-----
2024-06-18 09:24 pm E 8.9 12.0----29.83- 81.3-----
2024-06-18 09:18 pm E 8.9 15.0----29.82- 81.3-----
2024-06-18 09:12 pm E 11.1 17.1----29.82- 81.1-----
2024-06-18 09:06 pm E 12.0 14.0----29.82- 81.3-----
2024-06-18 09:00 pm E 9.9 14.0----29.82+0.01 81.3-----
2024-06-18 08:54 pm E 8.0 13.0----29.82- 81.7-----
2024-06-18 08:48 pm E 9.9 14.0----29.82- 81.7-----
2024-06-18 08:42 pm E 8.0 15.0----29.82- 81.9-----
2024-06-18 08:36 pm E 9.9 15.0----29.82- 82.0-----
2024-06-18 08:30 pm E 8.9 14.0----29.82- 82.0-----
2024-06-18 08:24 pm E 8.9 14.0----29.83- 82.0-----
2024-06-18 08:18 pm E 9.9 14.0----29.83- 82.0-----
2024-06-18 08:12 pm E 9.9 17.1----29.83- 82.0-----
2024-06-18 08:06 pm E 9.9 13.0----29.83- 82.2-----
2024-06-18 08:00 pm E 9.9 15.0----29.83+0.02 82.8-----
2024-06-18 07:54 pm E 8.9 15.0----29.82- 82.6-----
2024-06-18 07:48 pm E 12.0 17.1----29.82- 82.8-----
2024-06-18 07:42 pm E 12.0 17.1----29.82- 82.6-----
2024-06-18 07:36 pm E 12.0 14.0----29.82- 82.6-----
2024-06-18 07:30 pm E 11.1 18.1----29.82- 82.6-----
2024-06-18 07:24 pm E 9.9 15.9----29.81- 82.9-----
2024-06-18 07:18 pm E 9.9 14.0----29.81- 82.8-----
2024-06-18 07:12 pm E 12.0 20.0----29.81- 82.8-----
2024-06-18 07:06 pm E 8.9 14.0----29.81- 82.8-----
2024-06-18 07:00 pm E 9.9 17.1----29.81-0.01 82.6-----
2024-06-18 06:54 pm E 11.1 17.1----29.81- 82.4-----
2024-06-18 06:48 pm E 11.1 15.9----29.81- 82.8-----
2024-06-18 06:42 pm E 11.1 17.1----29.81- 82.8-----
2024-06-18 06:36 pm E 11.1 14.0----29.82- 82.6-----
2024-06-18 06:30 pm E 12.0 17.1----29.82- 82.8-----
2024-06-18 06:24 pm E 12.0 19.0----29.82- 83.5-----
2024-06-18 06:18 pm E 14.0 20.0----29.82- 83.1-----
2024-06-18 06:12 pm E 11.1 15.9----29.82- 83.7-----
2024-06-18 06:06 pm E 13.0 18.1----29.81- 83.7-----
2024-06-18 06:00 pm E 13.0 18.1----29.81-0.01 83.8-----
2024-06-18 05:54 pm E 11.1 15.0----29.81- 84.0-----
2024-06-18 05:48 pm E 11.1 18.1----29.82- 84.0-----
2024-06-18 05:42 pm E 8.0 14.0----29.82- 83.8-----
2024-06-18 05:36 pm E 8.9 14.0----29.81- 83.8-----
2024-06-18 05:30 pm E 12.0 15.9----29.81- 82.9-----
2024-06-18 05:24 pm E 11.1 15.9----29.81- 82.9-----
2024-06-18 05:18 pm E 8.9 15.0----29.81- 83.1-----
2024-06-18 05:12 pm E 8.9 15.9----29.81- 82.8-----
2024-06-18 05:06 pm E 8.9 12.0----29.81- 82.2-----
2024-06-18 05:00 pm E 9.9 14.0----29.81-0.01 81.9-----
2024-06-18 04:54 pm E 8.9 13.0----29.80- 81.7-----
2024-06-18 04:48 pm E 11.1 14.0----29.80- 81.1-----
2024-06-18 04:42 pm E 8.0 14.0----29.81- 81.1-----
2024-06-18 04:36 pm E 9.9 12.0----29.81- 80.8-----
2024-06-18 04:30 pm E 8.9 14.0----29.82- 80.8-----
2024-06-18 04:24 pm E 9.9 12.0----29.82- 80.6-----
2024-06-18 04:18 pm E 6.0 9.9----29.82- 79.9-----
2024-06-18 04:12 pm E 6.0 12.0----29.82- 79.5-----
2024-06-18 04:06 pm E 8.0 13.0----29.82- 78.8-----
2024-06-18 04:00 pm E 9.9 13.0----29.83+0.00 78.8-----
2024-06-18 03:54 pm E 11.1 15.9----29.83- 78.6-----
2024-06-18 03:48 pm E 7.0 8.9----29.83- 78.4-----
2024-06-18 03:42 pm E 5.1 8.0----29.83- 77.9-----
2024-06-18 03:36 pm E 7.0 12.0----29.84- 76.8-----
2024-06-18 03:30 pm E 8.0 13.0----29.85- 76.5-----
2024-06-18 03:24 pm E 8.9 14.0----29.85- 76.5-----
2024-06-18 03:18 pm E 11.1 14.0----29.85- 76.5-----
2024-06-18 03:12 pm E 8.9 17.1----29.84- 77.9-----
2024-06-18 03:06 pmESE 6.0 21.0----29.83- 80.1-----
2024-06-18 03:00 pmSSW 4.1 15.0----29.83+0.01 82.8-----
2024-06-18 02:54 pm S 12.0 18.1----29.82- 83.3-----